Location: Natural Bridges National Monument
(37.6093°N, 109.9767°W)
Time: 11:18:23
(UTC-06:00)

Amateur Radio Satellites - All Passes

Search period start: 27 July 2016 10:48
Search period end: 28 July 2016 10:48
Location: Natural Bridges National Monument, 37.6093°N, 109.9767°W

Satellite Date Start Highest point End Downlink Frequencies (MHz)
Time Altitude Azimuth
QB50P2 27 Jul 10:48:51 10:50:11 11° 64° (ENE) 10:51:32 145.880/145.840
POLYITAN 1 27 Jul 10:51:20 10:52:49 12° 64° (ENE) 10:54:17 437.675
HUMSAT D 27 Jul 10:55:26 10:58:57 26° 96° (E) 11:02:25 437.325/437.525
ANTELSAT 27 Jul 11:00:50 11:05:27 79° 257° (WSW) 11:10:10 437.575/2403.000
Cosmos 2491 27 Jul 11:05:35 11:12:41 29° 277° (W) 11:19:51 435.465 / 435.565
FUNcube-1 27 Jul 11:16:44 11:20:51 36° 288° (WNW) 11:24:51 145.935
ZACube-1 27 Jul 11:17:49 11:21:51 33° 289° (WNW) 11:25:48 437.345
UWE-3 27 Jul 11:17:59 11:21:35 23° 292° (WNW) 11:25:07 435.000/436.395/437.385
NANOSAT C BR1 27 Jul 11:31:47 11:35:30 31° 71° (ENE) 11:39:15 145.865
DUCHIFAT 1 27 Jul 11:35:56 11:39:41 32° 71° (ENE) 11:43:28 145.980
ESTCUBE 1 27 Jul 11:36:03 11:37:49 12° 91° (E) 11:39:35 437.505/2401.250
M-CUBED/EXP-1 PRIME 27 Jul 11:36:26 11:41:09 81° 289° (WNW) 11:45:50 437.505
TIGRISAT 27 Jul 11:43:16 11:47:16 29° 264° (W) 11:51:21 435.000
BUGSAT 1 27 Jul 11:50:36 11:53:35 20° 68° (ENE) 11:56:35 437.445
CUBEBUG 1 27 Jul 11:52:44 11:54:26 12° 91° (E) 11:56:09 437.445
QB50P1 27 Jul 11:53:47 11:57:57 60° 74° (ENE) 12:02:10 145.935-145.965
POPSAT HIP 1 27 Jul 12:00:12 12:04:25 70° 75° (ENE) 12:08:40 437.405
UNISAT 6 27 Jul 12:00:41 12:03:53 18° 267° (W) 12:07:07 437.425
Oscar 11 27 Jul 12:01:11 12:02:38 12° 296° (WNW) 12:04:05 145.826/435.025
AUBIESAT-1 27 Jul 12:02:34 12:07:05 51° 291° (WNW) 12:11:33 437.475
DELFI C3 27 Jul 12:07:23 12:10:04 18° 292° (WNW) 12:12:45 145.870
Cosmos 2504 27 Jul 12:09:10 12:17:58 70° 279° (W) 12:26:49 435.465 / 435.565
RS-15 27 Jul 12:14:33 12:21:49 17° 358° (N) 12:29:12 29.354- 29.394
QB50P2 27 Jul 12:21:15 12:25:26 59° 259° (W) 12:29:40 145.880/145.840
POLYITAN 1 27 Jul 12:23:53 12:28:04 58° 260° (W) 12:32:19 437.675
JAS-2 27 Jul 12:31:01 12:36:52 49° 72° (ENE) 12:42:08 435.910
HUMSAT D 27 Jul 12:31:09 12:34:26 22° 291° (WNW) 12:37:39 437.325/437.525
YUBILEINY 27 Jul 12:34:12 12:39:52 18° 295° (WNW) 12:45:36 435.215
DX 1 27 Jul 12:34:21 12:37:45 22° 96° (E) 12:41:10 434.975-435.025
AISAT 27 Jul 12:34:53 12:38:56 33° 98° (E) 12:42:59 437.250
UKube-1 27 Jul 12:47:30 12:51:01 24° 96° (E) 12:54:32 .
Oscar 19 27 Jul 12:48:41 12:52:02 18° 64° (ENE) 12:55:23 437.125/150
NANOSAT C BR1 27 Jul 13:08:10 13:11:15 20° 266° (W) 13:14:21 145.865
ESTCUBE 1 27 Jul 13:10:32 13:14:56 55° 286° (WNW) 13:19:19 437.505/2401.250
DUCHIFAT 1 27 Jul 13:12:26 13:15:25 19° 266° (W) 13:18:26 145.980
SPROUT 27 Jul 13:19:51 13:24:03 48° 99° (E) 13:28:12 437.525
AO-85 27 Jul 13:20:30 13:24:41 23° 110° (ESE) 13:28:47 145.980
50 SAT 27 Jul 13:25:02 13:28:31 49° 285° (WNW) 13:31:59 437.505
BUGSAT 1 27 Jul 13:25:12 13:28:44 29° 263° (W) 13:32:22 437.445
VELOX 1 27 Jul 13:26:05 13:30:30 66° 285° (WNW) 13:34:55 145.980
CUBEBUG 1 27 Jul 13:26:43 13:31:01 54° 286° (WNW) 13:35:19 437.445
AIST 1 27 Jul 13:50:11 13:54:22 59° 94° (E) 13:58:33
AO-7 27 Jul 13:59:41 14:03:29 14° 49° (NE) 14:07:17 29.400- 29.500
Gurwin Techsat 1B 27 Jul 14:09:03 14:14:06 47° 71° (ENE) 14:19:11 435.225
Cosmos 2504 27 Jul 14:09:22 14:13:00 13° 299° (WNW) 14:16:39 435.465 / 435.565
DX 1 27 Jul 14:10:08 14:13:55 29° 290° (WNW) 14:17:42 434.975-435.025
AISAT 27 Jul 14:11:53 14:15:10 21° 293° (WNW) 14:18:28 437.250
TISAT 1 27 Jul 14:14:20 14:18:24 44° 99° (E) 14:22:28 437.305
JAS-2 27 Jul 14:17:36 14:22:04 21° 264° (W) 14:26:15 435.910
ITAMSAT 1 27 Jul 14:23:04 14:26:54 21° 65° (ENE) 14:30:44 435.822/435.867
UKube-1 27 Jul 14:23:22 14:26:59 26° 291° (WNW) 14:30:36 .
SWISSCUBE 27 Jul 14:25:12 14:26:31 11° 91° (E) 14:27:51 437.505
Oscar 19 27 Jul 14:25:56 14:30:54 52° 260° (W) 14:35:54 437.125/150
RS-15 27 Jul 14:30:13 14:40:27 29° 34° (NNE) 14:50:38 29.354- 29.394
GONETS M04 27 Jul 14:44:06 14:50:25 23° 81° (E) 14:56:43
BEESAT 27 Jul 14:44:56 14:48:04 17° 93° (E) 14:51:10 436.000
CUSAT 1 27 Jul 14:50:56 14:53:35 25° 80° (E) 14:56:44 437.405
SPROUT 27 Jul 14:57:18 14:59:33 14° 295° (WNW) 15:01:48 437.525
AO-85 27 Jul 14:59:45 15:04:56 46° 305° (NW) 15:09:55 145.980
ITUPSAT 1 27 Jul 15:07:27 15:11:36 29° 97° (E) 15:15:43 437.325
Cosmos 2499 27 Jul 15:09:50 15:16:40 26° 83° (E) 15:23:24 435.465 / 435.565
DANDE 27 Jul 15:18:43 15:19:25 11° 76° (ENE) 15:20:07 436.750
AO-7 27 Jul 15:46:25 15:54:40 67° 68° (ENE) 16:02:57 29.400- 29.500
Gurwin Techsat 1B 27 Jul 15:50:27 15:54:15 20° 266° (W) 15:58:03 435.225
TISAT 1 27 Jul 15:51:17 15:53:39 15° 294° (WNW) 15:56:02 437.305
SWISSCUBE 27 Jul 15:59:59 16:04:43 66° 286° (WNW) 16:09:25 437.505
ITAMSAT 1 27 Jul 16:01:02 16:06:02 45° 261° (W) 16:11:02 435.822/435.867
SO-50 27 Jul 16:19:47 16:22:18 14° 43° (NE) 16:24:47 436.795
BEESAT 27 Jul 16:21:30 16:26:02 44° 288° (WNW) 16:30:30 436.000
KKS-1 27 Jul 16:22:01 16:25:20 20° 95° (E) 16:28:38 437.445
PHONESAT 2.4 27 Jul 16:29:17 16:31:31 18° 148° (SSE) 16:33:45 2401.200-2431.200
CUSAT 1 27 Jul 16:34:14 16:35:27 12° 265° (W) 16:36:45 437.405
GONETS M04 27 Jul 16:37:44 16:46:21 68° 279° (W) 16:55:03
HORYU 2 27 Jul 16:42:02 16:45:39 25° 68° (ENE) 16:49:18 437.375
RS-15 27 Jul 16:42:38 16:55:06 83° 60° (ENE) 17:07:18 29.354- 29.394
ITUPSAT 1 27 Jul 16:45:21 16:49:18 26° 292° (WNW) 16:53:14 437.325
MOZHAYETS 4 27 Jul 16:58:29 17:03:00 57° 101° (E) 17:07:28
STARS 27 Jul 16:59:16 17:02:57 25° 96° (E) 17:06:36 437.465
Cosmos 2499 27 Jul 17:00:16 17:09:05 66° 280° (W) 17:17:45 435.465 / 435.565
DANDE 27 Jul 17:00:32 17:02:03 14° 266° (W) 17:03:40 436.750
Cubesat XI-IV 27 Jul 17:22:33 17:24:41 12° 60° (ENE) 17:26:50 437.490
BRITE-PL 27 Jul 17:23:14 17:25:21 14° 66° (ENE) 17:27:29 437.365/2234.400
AO-7 27 Jul 17:41:25 17:47:56 25° 265° (W) 17:54:30 29.400- 29.500
CUTE-I 27 Jul 17:44:05 17:47:56 20° 64° (ENE) 17:51:46 437.470
KKS-1 27 Jul 17:57:53 18:01:56 34° 290° (WNW) 18:05:58 437.445
SO-50 27 Jul 17:58:44 18:03:20 74° 242° (WSW) 18:07:47 436.795
NOAA 15 27 Jul 18:01:33 18:06:21 38° 70° (ENE) 18:11:11 137.62
PHONESAT 2.4 27 Jul 18:04:40 18:07:44 90° 174° (S) 18:10:49 2401.200-2431.200
LilacSat-2 27 Jul 18:06:20 18:09:23 22° 70° (ENE) 18:12:27 437.200
HORYU 2 27 Jul 18:18:13 18:22:04 28° 263° (W) 18:25:57 437.375
CUBESAT XI-V 27 Jul 18:19:04 18:23:32 49° 99° (E) 18:28:01 437.345
GOMX 1 27 Jul 18:21:22 18:24:52 26° 69° (ENE) 18:28:29 467.674
NOAA 18 27 Jul 18:22:36 18:27:52 47° 71° (ENE) 18:33:11 137.9125
BEESAT 3 27 Jul 18:26:11 18:29:42 33° 114° (ESE) 18:33:15 437.485
BEESAT 2 27 Jul 18:33:56 18:36:55 21° 111° (ESE) 18:39:55 435.950
STARS 27 Jul 18:35:30 18:39:13 27° 291° (WNW) 18:42:56 437.465
MOZHAYETS 4 27 Jul 18:37:31 18:39:38 13° 296° (WNW) 18:41:45
GONETS M04 27 Jul 18:42:24 18:44:58 11° 301° (WNW) 18:47:33
HO-68 27 Jul 18:46:55 18:50:53 16° 56° (NE) 18:54:52 435.675
PCSat 27 Jul 18:51:25 18:55:39 24° 107° (ESE) 18:59:54 145.827
RS-15 27 Jul 18:56:58 19:06:08 26° 259° (W) 19:15:12 29.354- 29.394
Cubesat XI-IV 27 Jul 18:58:37 19:04:00 83° 257° (WSW) 19:09:25 437.490
BRITE-PL 27 Jul 18:59:34 19:03:29 41° 261° (W) 19:07:27 437.365/2234.400
Cosmos 2499 27 Jul 19:01:03 19:03:52 12° 299° (WNW) 19:06:40 435.465 / 435.565
CUTE-I 27 Jul 19:22:23 19:27:35 49° 260° (W) 19:32:48 437.470
CANX-2 27 Jul 19:29:29 19:32:14 17° 67° (ENE) 19:35:00 2200.000
LilacSat-2 27 Jul 19:40:31 19:43:35 22° 265° (W) 19:46:40 437.200
PHONESAT 2.4 27 Jul 19:41:25 19:44:24 46° 359° (N) 19:47:23 2401.200-2431.200
NOAA 15 27 Jul 19:42:04 19:46:12 23° 265° (W) 19:50:21 137.62
CUTE 1.7 + AOD 2 27 Jul 19:42:21 19:45:30 20° 69° (ENE) 19:48:38 437.475
DOVE 4 27 Jul 19:48:29 19:52:43 70° 259° (WSW) 19:57:12 437.250
CINEMA 3 27 Jul 19:55:58 20:00:07 37° 71° (ENE) 20:04:28 145.822/145.860
CUBESAT XI-V 27 Jul 19:57:49 20:00:30 15° 294° (WNW) 20:03:11 437.345
GOMX 1 27 Jul 19:59:46 20:02:58 21° 266° (W) 20:06:16 467.674
STRAND 1 27 Jul 20:01:20 20:05:56 33° 97° (E) 20:10:29 437.568
BEESAT 3 27 Jul 20:04:32 20:07:26 20° 310° (NW) 20:10:23 437.485
NOAA 18 27 Jul 20:04:39 20:08:44 21° 266° (W) 20:12:50 137.9125
O/OREOS (USA 219) 27 Jul 20:09:57 20:13:00 18° 100° (E) 20:16:03 437.305
BEESAT 2 27 Jul 20:11:04 20:14:33 29° 307° (NW) 20:18:05 435.950
Cosmos 2491 27 Jul 20:19:24 20:19:43 10° 74° (ENE) 20:20:02 435.465 / 435.565
SEEDS 27 Jul 20:19:35 20:23:29 37° 73° (ENE) 20:27:23 437.485
HO-68 27 Jul 20:30:22 20:37:33 86° 74° (ENE) 20:44:48 435.675
COMPASS 1 27 Jul 20:30:23 20:34:09 34° 72° (ENE) 20:37:56 437.405
PCSat 27 Jul 20:33:36 20:38:44 43° 303° (WNW) 20:43:55 145.827
FUNcube-1 27 Jul 20:36:11 20:38:07 13° 64° (ENE) 20:40:03 145.935
UWE-3 27 Jul 20:36:33 20:39:59 21° 67° (ENE) 20:43:27 435.000/436.395/437.385
ZACube-1 27 Jul 20:37:03 20:39:21 14° 65° (ENE) 20:41:40 437.345
AIST 2 27 Jul 20:39:15 20:42:24 22° 111° (ESE) 20:45:35 435.215
YUBILEINY 27 Jul 20:46:10 20:54:20 39° 74° (ENE) 21:02:22 435.215
AAUSAT CUBESAT 2 27 Jul 20:57:44 21:01:49 56° 75° (ENE) 21:05:53 437.432
CUBEBUG 2 27 Jul 20:58:43 21:03:10 53° 74° (ENE) 21:07:45 437.445
PRISM 27 Jul 20:59:46 21:01:57 14° 93° (E) 21:04:09 437.425
CANX-2 27 Jul 21:03:47 21:07:46 38° 262° (W) 21:11:46 2200.000
AUBIESAT-1 27 Jul 21:15:01 21:16:35 12° 58° (ENE) 21:18:12 437.475
Oscar 11 27 Jul 21:15:34 21:19:31 35° 72° (ENE) 21:23:29 145.826/435.025
DELFI C3 27 Jul 21:17:17 21:19:25 14° 67° (ENE) 21:21:33 145.870
CUTE 1.7 + AOD 2 27 Jul 21:17:20 21:21:07 31° 263° (W) 21:24:55 437.475
PHONESAT 2.4 27 Jul 21:18:00 21:21:05 78° 16° (NNE) 21:24:09 2401.200-2431.200
CINEMA 3 27 Jul 21:34:15 21:37:24 19° 268° (W) 21:40:40 145.822/145.860
STRAND 1 27 Jul 21:40:43 21:44:57 27° 293° (WNW) 21:49:08 437.568
ISS 27 Jul 21:43:43 21:46:57 73° 320° (NW) 21:50:12 145.825
HUMSAT D 27 Jul 21:45:35 21:48:12 16° 66° (ENE) 21:50:48 437.325/437.525
O/OREOS (USA 219) 27 Jul 21:47:58 21:52:05 36° 296° (WNW) 21:56:14 437.305
AO-85 27 Jul 21:55:35 21:57:00 11° 40° (NE) 21:58:25 145.980
SEEDS 27 Jul 21:56:40 21:59:17 16° 267° (W) 22:01:55 437.485
Cosmos 2504 27 Jul 22:05:29 22:12:58 40° 74° (ENE) 22:19:56 435.465 / 435.565
Cosmos 2491 27 Jul 22:06:11 22:14:47 69° 92° (E) 22:23:25 435.465 / 435.565
COMPASS 1 27 Jul 22:07:00 22:09:46 17° 266° (W) 22:12:33 437.405
FUNcube-1 27 Jul 22:09:19 22:13:47 61° 260° (W) 22:18:20 145.935
ZACube-1 27 Jul 22:10:41 22:15:07 55° 260° (W) 22:19:38 437.345
UWE-3 27 Jul 22:12:00 22:16:09 35° 263° (W) 22:20:25 435.000/436.395/437.385
AIST 2 27 Jul 22:17:03 22:20:42 30° 307° (NW) 22:24:23 435.215
M-CUBED/EXP-1 PRIME 27 Jul 22:21:13 22:24:56 88° 253° (WSW) 22:29:00 437.505
HO-68 27 Jul 22:22:13 22:26:01 15° 270° (W) 22:29:51 435.675
PRISM 27 Jul 22:33:35 22:37:25 40° 288° (WNW) 22:41:14 437.425
CUBEBUG 2 27 Jul 22:37:52 22:40:06 13° 270° (W) 22:42:23 437.445
YUBILEINY 27 Jul 22:42:58 22:51:05 43° 273° (W) 22:59:09 435.215
AUBIESAT-1 27 Jul 22:46:49 22:50:29 52° 256° (WSW) 22:54:29 437.475
DELFI C3 27 Jul 22:50:11 22:53:55 39° 262° (W) 22:57:39 145.870
Oscar 11 27 Jul 22:52:45 22:55:43 18° 266° (W) 22:58:43 145.826/435.025
PHONESAT 2.4 27 Jul 22:54:52 22:57:23 23° 211° (SSW) 22:59:53 2401.200-2431.200
ANTELSAT 27 Jul 22:55:11 22:59:01 25° 95° (E) 23:02:45 437.575/2403.000
HUMSAT D 27 Jul 23:19:22 23:23:26 42° 261° (W) 23:27:33 437.325/437.525
ISS 27 Jul 23:22:10 23:23:51 13° 338° (NNW) 23:25:33 145.825
DX 1 27 Jul 23:28:53 23:31:29 16° 66° (ENE) 23:34:05 434.975-435.025
AISAT 27 Jul 23:30:46 23:34:16 24° 68° (ENE) 23:37:47 437.250
AO-85 27 Jul 23:33:50 23:38:11 84° 242° (WSW) 23:42:10 145.980
TIGRISAT 27 Jul 23:36:04 23:40:42 69° 101° (E) 23:45:11 435.000
UKube-1 27 Jul 23:40:57 23:43:42 17° 66° (ENE) 23:46:27 .
QB50P1 27 Jul 23:42:49 23:44:07 11° 91° (E) 23:45:26 145.935-145.965
POPSAT HIP 1 27 Jul 23:48:38 23:50:43 13° 92° (E) 23:52:46 437.405
UNISAT 6 27 Jul 23:52:43 23:57:21 72° 284° (WNW) 00:01:50 437.425
Cosmos 2504 27 Jul 23:59:03 00:06:11 37° 274° (W) 00:12:54 435.465 / 435.565
50 SAT 28 Jul 00:00:19 00:03:50 47° 74° (ENE) 00:07:23 437.505
AIST 1 28 Jul 00:00:49 00:02:44 13° 71° (ENE) 00:04:40
Cosmos 2491 28 Jul 00:05:42 00:12:19 24° 292° (WNW) 00:19:00 435.465 / 435.565
ESTCUBE 1 28 Jul 00:07:43 00:12:12 78° 256° (WSW) 00:16:42 437.505/2401.250
QB50P2 28 Jul 00:08:31 00:12:04 25° 96° (E) 00:15:35 145.880/145.840
POLYITAN 1 28 Jul 00:11:08 00:14:44 25° 96° (E) 00:18:16 437.675
SPROUT 28 Jul 00:11:42 00:15:21 28° 70° (ENE) 00:19:03 437.525
CUBEBUG 1 28 Jul 00:20:22 00:24:40 85° 257° (WSW) 00:29:01 437.445
VELOX 1 28 Jul 00:21:08 00:25:30 85° 77° (ENE) 00:29:55 145.980
ANTELSAT 28 Jul 00:31:44 00:35:39 28° 291° (WNW) 00:39:29 437.575/2403.000
NANOSAT C BR1 28 Jul 00:53:00 00:57:18 75° 103° (ESE) 01:01:31 145.865
DUCHIFAT 1 28 Jul 00:56:53 01:01:10 78° 102° (ESE) 01:05:25 145.980
DX 1 28 Jul 01:03:13 01:07:18 42° 261° (W) 01:11:25 434.975-435.025
TISAT 1 28 Jul 01:04:24 01:07:51 25° 69° (ENE) 01:11:20 437.305
AISAT 28 Jul 01:06:52 01:10:36 27° 263° (W) 01:14:21 437.250
BUGSAT 1 28 Jul 01:08:12 01:12:16 43° 99° (E) 01:16:19 437.445
TIGRISAT 28 Jul 01:15:18 01:16:43 11° 297° (WNW) 01:18:07 435.000
UKube-1 28 Jul 01:15:24 01:19:25 39° 261° (W) 01:23:28 .
QB50P1 28 Jul 01:16:00 01:20:12 54° 286° (WNW) 01:24:21 145.935-145.965
POPSAT HIP 1 28 Jul 01:22:36 01:26:43 46° 287° (WNW) 01:30:48 437.405
JAS-2 28 Jul 01:25:50 01:31:01 48° 100° (E) 01:36:41 435.910
SWISSCUBE 28 Jul 01:30:11 01:31:51 12° 62° (ENE) 01:33:32 437.505
AIST 1 28 Jul 01:36:25 01:40:36 48° 267° (W) 01:44:49
QB50P2 28 Jul 01:44:16 01:47:46 25° 291° (WNW) 01:51:15 145.880/145.840
POLYITAN 1 28 Jul 01:46:55 01:50:25 25° 291° (WNW) 01:53:52 437.675
SPROUT 28 Jul 01:47:59 01:51:16 22° 265° (W) 01:54:36 437.525
BEESAT 28 Jul 01:49:52 01:52:57 17° 65° (ENE) 01:56:02 436.000
JUGNU 28 Jul 01:55:19 01:56:20 10° 170° (S) 01:57:22 437.505
ITUPSAT 1 28 Jul 02:12:24 02:16:29 28° 69° (ENE) 02:20:34 437.325
Gurwin Techsat 1B 28 Jul 02:27:52 02:31:53 21° 94° (E) 02:35:52 435.225
ISS 28 Jul 02:37:51 02:39:14 12° 20° (NNE) 02:40:37 145.825
Oscar 19 28 Jul 02:39:08 02:44:17 65° 102° (ESE) 02:49:26 437.125/150
TISAT 1 28 Jul 02:40:03 02:43:25 23° 264° (W) 02:46:49 437.305
BUGSAT 1 28 Jul 02:44:49 02:47:15 15° 294° (WNW) 02:49:41 437.445
BEESAT 3 28 Jul 02:46:05 02:48:03 13° 46° (NE) 02:50:01 437.485
GONETS M04 28 Jul 02:50:15 02:58:55 56° 79° (ENE) 03:07:32
Cosmos 2499 28 Jul 02:55:10 03:02:24 40° 75° (ENE) 03:09:08 435.465 / 435.565
SWISSCUBE 28 Jul 03:04:14 03:09:00 73° 258° (WSW) 03:13:49 437.505
JAS-2 28 Jul 03:12:02 03:15:51 20° 294° (WNW) 03:19:52 435.910
KKS-1 28 Jul 03:19:03 03:21:39 15° 65° (ENE) 03:24:15 437.445
BEESAT 28 Jul 03:25:43 03:30:20 47° 260° (W) 03:34:58 436.000
PCSat 28 Jul 03:41:12 03:44:22 15° 46° (NE) 03:47:30 145.827
JUGNU 28 Jul 03:41:42 03:44:30 13° 180° (S) 03:47:17 437.505
ITUPSAT 1 28 Jul 03:50:09 03:54:13 27° 264° (W) 03:58:19 437.325
AO-7 28 Jul 03:51:26 03:57:46 23° 94° (E) 04:04:01 29.400- 29.500
CUSAT 1 28 Jul 03:52:23 03:56:23 38° 97° (E) 03:59:33 437.405
STARS 28 Jul 03:54:40 03:57:40 18° 66° (ENE) 04:00:42 437.465
MOZHAYETS 4 28 Jul 03:58:14 04:02:37 43° 73° (ENE) 04:07:00
Gurwin Techsat 1B 28 Jul 04:06:58 04:11:59 43° 289° (WNW) 04:16:57 435.225
ISS 28 Jul 04:13:01 04:16:14 58° 37° (NE) 04:19:26 145.825
SRMSAT 28 Jul 04:13:58 04:14:51 10° 170° (S) 04:15:42 437.500
ITAMSAT 1 28 Jul 04:15:30 04:20:43 75° 102° (ESE) 04:25:52 435.822/435.867
Oscar 19 28 Jul 04:20:12 04:23:02 15° 297° (WNW) 04:25:52 437.125/150
BEESAT 3 28 Jul 04:22:11 04:26:05 58° 243° (WSW) 04:29:57 437.485
DANDE 28 Jul 04:22:41 04:27:57 36° 97° (E) 04:32:00 436.750
BEESAT 2 28 Jul 04:30:08 04:34:09 86° 60° (ENE) 04:38:08 435.950
GONETS M04 28 Jul 04:47:59 04:55:08 29° 277° (W) 05:02:20
Cosmos 2499 28 Jul 04:48:35 04:55:17 34° 274° (W) 05:01:37 435.465 / 435.565
KKS-1 28 Jul 04:53:33 04:57:48 46° 260° (W) 05:02:06 437.445
RS-15 28 Jul 05:00:50 05:03:53 11° 94° (E) 05:06:58 29.354- 29.394
AIST 2 28 Jul 05:03:31 05:04:35 11° 43° (NE) 05:05:38 435.215
CUBESAT XI-V 28 Jul 05:20:27 05:24:42 38° 72° (ENE) 05:28:57 437.345
PCSat 28 Jul 05:22:59 05:28:26 82° 245° (WSW) 05:33:50 145.827
STARS 28 Jul 05:29:40 05:33:43 37° 262° (W) 05:37:50 437.465
JUGNU 28 Jul 05:31:22 05:32:38 11° 190° (S) 05:33:54 437.505
MOZHAYETS 4 28 Jul 05:37:02 05:39:58 16° 267° (W) 05:42:53
AO-7 28 Jul 05:42:48 05:51:06 70° 291° (WNW) 05:59:19 29.400- 29.500
ISS 28 Jul 05:50:58 05:52:16 12° 232° (SW) 05:53:35 145.825
ITAMSAT 1 28 Jul 05:57:14 05:59:30 13° 299° (WNW) 06:01:46 435.822/435.867
SRMSAT 28 Jul 06:00:25 06:03:08 13° 180° (S) 06:05:50 437.500
DANDE 28 Jul 06:06:39 06:10:35 20° 282° (WNW) 06:13:50 436.750
HORYU 2 28 Jul 06:10:14 06:14:41 62° 101° (E) 06:19:04 437.375
NOAA 15 28 Jul 06:19:34 06:22:51 17° 93° (E) 06:26:07 137.62
O/OREOS (USA 219) 28 Jul 06:20:32 06:24:25 27° 62° (ENE) 06:28:17 437.305
GOMX 1 28 Jul 06:25:41 06:27:36 12° 91° (E) 06:29:34 467.674
AIST 2 28 Jul 06:39:27 06:43:39 86° 239° (WSW) 06:47:49 435.215
NOAA 18 28 Jul 06:47:13 06:51:34 23° 95° (E) 06:55:53 137.9125
CUBESAT XI-V 28 Jul 06:58:59 07:02:11 18° 267° (W) 07:05:24 437.345
RS-15 28 Jul 07:02:32 07:13:42 66° 113° (ESE) 07:25:31 29.354- 29.394
BRITE-PL 28 Jul 07:04:21 07:09:14 65° 101° (E) 07:14:31 437.365/2234.400
LilacSat-2 28 Jul 07:14:57 07:18:38 42° 99° (E) 07:22:16 437.200
STRAND 1 28 Jul 07:15:13 07:19:58 39° 71° (ENE) 07:24:45 437.568
Cubesat XI-IV 28 Jul 07:18:00 07:23:08 46° 99° (E) 07:28:14 437.490
AO-7 28 Jul 07:38:18 07:42:21 15° 311° (NW) 07:46:24 29.400- 29.500
CUTE-I 28 Jul 07:41:10 07:46:31 79° 103° (ESE) 07:51:50 437.470
DOVE 4 28 Jul 07:48:32 07:53:25 39° 98° (E) 07:58:21 437.250
HORYU 2 28 Jul 07:48:59 07:50:41 12° 297° (WNW) 07:52:21 437.375
SRMSAT 28 Jul 07:50:18 07:51:25 11° 190° (S) 07:52:32 437.500
CINEMA 3 28 Jul 07:54:27 07:56:23 12° 89° (E) 07:58:18 145.822/145.860
NOAA 15 28 Jul 07:57:47 08:02:55 54° 288° (WNW) 08:08:03 137.62
O/OREOS (USA 219) 28 Jul 07:59:56 08:03:42 26° 257° (WSW) 08:07:29 437.305
GOMX 1 28 Jul 08:00:55 08:06:02 75° 284° (WNW) 08:11:25 467.674
HO-68 28 Jul 08:02:04 08:06:36 18° 92° (E) 08:11:07 435.675
SO-50 28 Jul 08:10:25 08:15:12 57° 117° (ESE) 08:19:58 436.795
Cosmos 2491 28 Jul 08:19:25 08:26:55 31° 71° (ENE) 08:34:23 435.465 / 435.565
NOAA 18 28 Jul 08:27:09 08:32:21 43° 291° (WNW) 08:37:31 137.9125
BRITE-PL 28 Jul 08:44:45 08:47:16 14° 294° (WNW) 08:49:52 437.365/2234.400
CANX-2 28 Jul 08:50:30 08:54:29 39° 98° (E) 08:58:25 2200.000
LilacSat-2 28 Jul 08:50:53 08:52:31 12° 294° (WNW) 08:54:09 437.200
CUBEBUG 2 28 Jul 08:53:19 08:55:42 14° 91° (E) 08:58:02 437.445
STRAND 1 28 Jul 08:55:17 08:59:14 22° 265° (W) 09:03:13 437.568
Cubesat XI-IV 28 Jul 08:58:55 09:02:51 21° 295° (WNW) 09:06:45 437.490
CUTE 1.7 + AOD 2 28 Jul 09:03:36 09:07:42 49° 99° (E) 09:11:45 437.475
RS-15 28 Jul 09:16:19 09:26:56 40° 317° (NW) 09:38:07 29.354- 29.394
PRISM 28 Jul 09:20:33 09:24:37 75° 258° (WSW) 09:28:42 437.425
CUTE-I 28 Jul 09:23:33 09:25:51 13° 299° (WNW) 09:28:09 437.470
DOVE 4 28 Jul 09:26:43 09:30:50 24° 292° (WNW) 09:35:01 437.250
CINEMA 3 28 Jul 09:28:55 09:33:56 69° 285° (WNW) 09:38:51 145.822/145.860
SEEDS 28 Jul 09:40:29 09:44:40 84° 283° (WNW) 09:48:49 437.485
YUBILEINY 28 Jul 09:44:23 09:52:38 48° 89° (E) 10:00:57 435.215
HO-68 28 Jul 09:47:44 09:54:57 77° 287° (WNW) 10:02:06 435.675
COMPASS 1 28 Jul 09:49:59 09:54:08 86° 103° (ESE) 09:58:14 437.405
ANTELSAT 28 Jul 09:52:26 09:55:42 19° 66° (ENE) 09:59:01 437.575/2403.000
SO-50 28 Jul 09:52:33 09:56:02 19° 314° (NW) 09:59:30 436.795
FUNcube-1 28 Jul 09:59:48 10:03:41 29° 96° (E) 10:07:28 145.935
ZACube-1 28 Jul 10:01:20 10:05:22 32° 96° (E) 10:09:17 437.345
UWE-3 28 Jul 10:03:16 10:07:47 55° 100° (E) 10:12:09 435.000/436.395/437.385
Cosmos 2491 28 Jul 10:15:39 10:24:04 54° 270° (W) 10:32:31 435.465 / 435.565
AAUSAT CUBESAT 2 28 Jul 10:17:09 10:21:11 56° 285° (WNW) 10:25:12 437.432
CANX-2 28 Jul 10:27:28 10:29:59 16° 293° (WNW) 10:32:29 2200.000
CUBEBUG 2 28 Jul 10:28:03 10:32:37 52° 286° (WNW) 10:37:04 437.445
AUBIESAT-1 28 Jul 10:28:31 10:30:57 14° 96° (E) 10:33:21 437.475
DELFI C3 28 Jul 10:29:42 10:33:05 27° 96° (E) 10:36:28 145.870
TIGRISAT 28 Jul 10:32:20 10:36:46 47° 73° (ENE) 10:41:17 435.000
CUTE 1.7 + AOD 2 28 Jul 10:41:11 10:43:05 13° 294° (WNW) 10:44:59 437.475
